Quillayute, WA

2:45 PM PST on January 21, 2018 (GMT -0800)
Quillayute

Weather History for KUIL - August, 2013

Change the Weather History Date:

Monday, August 19, 2013

  Actual Average Record
Temperature  
Mean Temperature 64 °F 60 °F  
Max Temperature 72 °F 69 °F 96 °F (2016)
Min Temperature 55 °F 50 °F 40 °F (1973)
Degree Days  
Heating Degree Days 1 6  
Month to date heating degree days 40 102  
Since 1 June heating degree days 333 590  
Since 1 July heating degree days 153 296  
Cooling Degree Days 0 0  
Month to date cooling degree days 1 0  
Year to date cooling degree days 17 11  
Since 1 June cooling degree days 14 10  
Growing Degree Days 14 (Base 50)    
Moisture  
Dew Point 55 °F    
Average Humidity 70    
Maximum Humidity 86    
Minimum Humidity 53    
Precipitation  
Precipitation 0.05 in 0.10 in 1.39 in (1976)
Month to date precipitation 0.45 1.33  
Year to date precipitation 59.26 55.56  
Sea Level Pressure  
Sea Level Pressure 30.14 in    
Wind  
Wind Speed 5 mph (WNW)    
Max Wind Speed 14 mph    
Max Gust Speed 20 mph    
Visibility 6 miles    
Events Rain    
T = Trace of Precipitation, MM = Missing Value Source: NWS Daily Summary

Daily Weather History Graph

Daily Weather History Graph

Search for Another Location

Airport or City:

Trip Planner

Search our weather history database for the weather conditions in past years. The results will help you decide how hot, cold, wet, or windy it might be!

Date:

Astronomy

Aug. 19, 2013 Rise Set
Actual Time 6:19 AM PDT 8:23 PM PDT
Civil Twilight 5:45 AM PDT 8:56 PM PDT
Nautical Twilight 5:03 AM PDT 9:38 PM PDT
Astronomical Twilight 4:17 AM PDT 10:24 PM PDT
Moon 7:17 PM PDT (8/19) 4:42 AM PDT (8/19)
Length of Visible Light 15h 11m
Length of Day
14h 04m
Waxing Gibbous, 98% of the Moon is Illuminated
Aug 19
Waxing Gibbous
Aug 20
Full
Aug 28
Last Quarter
Sep 5
New
Sep 12
First Quarter

Hourly Weather History & Observations

Time (PDT) Temp. Dew Point Humidity Pressure Visibility Wind Dir Wind Speed Gust Speed Precip Events Conditions
12:53 AM 55.9 °F 52.0 °F 87% 30.11 in 7.0 mi Calm Calm - N/A   Clear
1:53 AM 55.9 °F 52.0 °F 87% 30.09 in 7.0 mi Calm Calm - N/A   Overcast
2:53 AM 57.0 °F 52.0 °F 83% 30.09 in 8.0 mi East 4.6 mph - N/A   Overcast
3:53 AM 57.0 °F 52.0 °F 83% 30.09 in 8.0 mi Calm Calm - N/A   Overcast
4:53 AM 57.0 °F 52.0 °F 83% 30.08 in 7.0 mi Calm Calm - N/A   Overcast
5:53 AM 57.0 °F 53.1 °F 87% 30.09 in 8.0 mi Calm Calm - 0.00 in Rain Light Rain
6:53 AM 57.9 °F 53.1 °F 84% 30.09 in 6.0 mi Calm Calm - 0.00 in   Haze
7:46 AM 60.8 °F 53.6 °F 77% 30.09 in 7.0 mi Calm Calm - N/A   Overcast
7:53 AM 60.1 °F 55.0 °F 83% 30.09 in 7.0 mi Calm Calm - N/A   Overcast
8:39 AM 62.6 °F 55.4 °F 77% 30.10 in 6.0 mi Variable 3.5 mph - N/A   Haze
8:53 AM 63.0 °F 57.0 °F 81% 30.10 in 6.0 mi Calm Calm - N/A   Haze
9:53 AM 66.0 °F 55.0 °F 68% 30.10 in 7.0 mi Variable 6.9 mph - N/A   Overcast
10:48 AM 64.4 °F 57.2 °F 77% 30.12 in 1.8 mi South 5.8 mph - 0.00 in Rain Light Rain
10:53 AM 64.0 °F 57.9 °F 80% 30.13 in 1.0 mi SSW 5.8 mph - 0.01 in Rain Light Rain
11:01 AM 64.4 °F 59.0 °F 83% 30.12 in 0.8 mi SSW 5.8 mph - 0.01 in Rain Light Rain
11:07 AM 62.6 °F 59.0 °F 88% 30.13 in 1.0 mi Variable 4.6 mph - 0.01 in Rain Light Rain
11:17 AM 62.6 °F 57.2 °F 82% 30.14 in 1.5 mi West 12.7 mph - 0.02 in Rain Light Rain
11:20 AM 62.6 °F 57.2 °F 82% 30.14 in 1.2 mi West 11.5 mph - 0.02 in Rain Rain
11:32 AM 62.6 °F 57.2 °F 82% 30.15 in 2.0 mi West 9.2 mph - 0.03 in Rain Light Rain
11:44 AM 62.6 °F 57.2 °F 82% 30.15 in 3.0 mi WSW 9.2 mph - 0.04 in Rain Light Rain
11:47 AM 62.6 °F 57.2 °F 82% 30.15 in 2.5 mi WSW 10.4 mph - 0.04 in Rain Light Rain
11:53 AM 62.1 °F 57.9 °F 86% 30.16 in 2.0 mi WSW 8.1 mph - 0.04 in Rain Light Rain
12:09 PM 62.6 °F 59.0 °F 88% 30.16 in 4.0 mi West 5.8 mph - 0.00 in   Overcast
12:23 PM 64.4 °F 60.8 °F 88% 30.16 in 8.0 mi West 4.6 mph - 0.00 in   Overcast
12:43 PM 66.2 °F 57.2 °F 73% 30.16 in 8.0 mi NW 12.7 mph 16.1 mph 0.00 in   Mostly Cloudy
12:50 PM 66.2 °F 57.2 °F 73% 30.16 in 8.0 mi NW 10.4 mph 16.1 mph 0.00 in   Mostly Cloudy
12:53 PM 66.9 °F 57.9 °F 73% 30.16 in 8.0 mi NW 8.1 mph - 0.00 in   Mostly Cloudy
1:53 PM 70.0 °F 55.9 °F 61% 30.17 in 8.0 mi WNW 10.4 mph - N/A   Partly Cloudy
2:53 PM 70.0 °F 54.0 °F 57% 30.17 in 8.0 mi WNW 10.4 mph 17.3 mph N/A   Clear
3:53 PM 71.1 °F 54.0 °F 55% 30.16 in 8.0 mi WNW 11.5 mph - N/A   Clear
4:53 PM 70.0 °F 53.1 °F 55% 30.16 in 8.0 mi NW 11.5 mph 19.6 mph N/A   Clear
5:53 PM 68.0 °F 52.0 °F 56% 30.16 in 8.0 mi NW 9.2 mph 16.1 mph N/A   Clear
6:53 PM 66.0 °F 54.0 °F 65% 30.16 in 7.0 mi NW 11.5 mph - N/A   Clear
7:53 PM 63.0 °F 55.0 °F 75% 30.16 in 6.0 mi NW 8.1 mph - N/A   Haze
8:53 PM 61.0 °F 55.0 °F 81% 30.17 in 7.0 mi Calm Calm - N/A   Mostly Cloudy
9:08 PM 60.8 °F 53.6 °F 77% 30.16 in 7.0 mi NW 4.6 mph - N/A   Scattered Clouds
9:21 PM 60.8 °F 55.4 °F 82% 30.17 in 7.0 mi Calm Calm - N/A   Mostly Cloudy
9:53 PM 61.0 °F 55.0 °F 81% 30.17 in 7.0 mi North 3.5 mph - N/A   Mostly Cloudy
10:53 PM 60.1 °F 54.0 °F 80% 30.17 in 6.0 mi Calm Calm - N/A   Haze
11:12 PM 60.8 °F 53.6 °F 77% 30.17 in 7.0 mi Calm Calm - N/A   Mostly Cloudy
11:53 PM 59.0 °F 54.0 °F 83% 30.17 in 6.0 mi Calm Calm - N/A   Haze